星链-3193 (STARLINK-3193 )

导读 | 星芒AI

STARLINK-3193 是 SpaceX Starlink 项目中的一颗低轨通信卫星,属于第 11 批(v1.5)发射的星链卫星群。该卫星于 2022 年 10 月 31 日由猎鹰 9 号火箭送入近地轨道,旨在为全球提供高速互联网服务。它运行在约 550 公里的高度,设计寿命为 5 至 7 年。STARLINK-3193 采用先进相控阵天线和激光通信技术,提高数据传输效率并减少地面基站依赖,助力实现 Starlink 的全球宽带覆盖目标。

基本信息
目录编号:
49754
目录名称:
STARLINK-3193
国际标识:
2021-115AG
轨道中心:
EARTH
卫星名称:
星链-3193
卫星全名:
星链-3193 (STARLINK-3193 )
卫星状态:
在轨 (已飞行1432 天)
发射日期:
2021-12-02 UTC
国别 :
美国 (US)
星等 :
--
轨道信息
数据来源 国际轨道数据
星历时间: 2025-11-02T18:22:54+0800
18小时前
查看轨道信息
半长轴: 6917.879km
偏心率: 0.00015
轨道倾角: 53.219°
近地点辐角 98.680°
升交点赤经 350.506°
平近点角 261.437°
近地点: 538.706km
远地点: 540.782km
周期: 95.438分钟
每日圈数: 15.088407
详细信息
固有亮度:
5
最大亮度:
2.5
卫星平台:
Starlink v1.5
覆盖范围:
全球
运营商:
太空探索技术公司
运营商所在国:
美国
制造商(研发单位):
太空探索技术公司
制造商所在国:
美国
使用方式:
暂无
卫星简介
星链(Starlink)计划是由太空探索技术公司(SpaceX)提出的一个巨型低轨卫星互联网星座项目,计划在2019年至2024年间在太空搭建由约1.2万颗卫星组成的“星链”网络,其中1584颗将部署在地球上空550千米处的近地轨道,并从2020年开始工作。该卫星仍在工作。
2D轨道图
3D轨道图
轨道高度分析图
轨道倾角分析图
轨道综合分析图
查看轨道综合分析图